Regional Weather Roundup
Issued by NWS

Home | Current Version | Previous Version | Graphics & Text | Print | Product List | Glossary On
Versions: 1 2 3 4 5 6 7 8 9 10 11 12 13 14 15 16 17 18 19 20 21 22 23 24 25 26 27 28 29 30 31 32 33 34 35 36 37 38 39 40 41 42 43 44 45 46 47 48 49 50
000
ASUS43 KMKX 201900
RWRWI

WISCONSIN REGIONAL WEATHER ROUNDUP
NATIONAL WEATHER SERVICE MILWAUKEE/SULLIVAN WI
100 PM CST MON FEB 20 2017

NOTE: "FAIR" INDICATES FEW OR NO CLOUDS BELOW 12,000 FEET WITH NO
SIGNIFICANT WEATHER AND/OR OBSTRUCTIONS TO VISIBILITY.

WIZ001-002-006>008-014>016-023>028-202000-
NORTHWEST WISCONSIN

CITY           SKY/WX    TMP DP  RH WIND       PRES   REMARKS
SUPERIOR ARPT  CLOUDY    37  36  96 NE14G20   29.78F WCI  28
ASHLAND        CLOUDY    52  41  66 S10G17    29.79F
HAYWARD        LGT RAIN  48  43  82 SE15G26   29.78F
SIREN          DRIZZLE   46  42  86 SE12G17   29.75F
CUMBERLAND     LGT RAIN  43  41  93 E13G20    29.74F
RICE LAKE      LGT RAIN  45  43  92 E16       29.76F
CHETEK         RAIN      44  43  96 E14G20    29.79F
LADYSMITH      CLOUDY    47  41  79 SE8       29.85F
EAU CLAIRE     LGT RAIN  49  46  90 SE18G26   29.78F FOG
MENOMONIE      RAIN      46  46  99 E14       29.77F
NEW RICHMOND   HVY RAIN  46  45  95 S9        29.77S
OSCEOLA        RAIN      48  48 100 S12       29.77F
$$

WIZ003>005-009-010-017-018-202000-
NORTH CENTRAL WISCONSIN

CITY           SKY/WX    TMP DP  RH WIND       PRES   REMARKS
MANITOWISH WTR CLOUDY    46  38  74 SE13G18   29.90F
ARBOR VITAE    CLOUDY    49  39  68 SE13G20   29.91F
WOODRUFF       CLOUDY    49  39  68 SE13G20   29.91F
RHINELANDER    CLOUDY    51  40  65 SE15G24   29.93F
EAGLE RIVER    CLOUDY    48  35  60 SE12G18   29.94F
LAND O LAKES   CLOUDY    49  37  62 SE13G21   29.94F
PHILLIPS       CLOUDY    47  40  76 SE10G18   29.83F
TOMAHAWK       CLOUDY    48  37  67 SE6       29.93F
MEDFORD        CLOUDY    46  38  72 SE13G18   29.88F
MERRILL        NOT AVBL
$$

WIZ029-030-035-036-043>047-202000-
CENTRAL WISCONSIN

CITY           SKY/WX    TMP DP  RH WIND       PRES   REMARKS
WAUSAU         MOSUNNY   47  38  71 SE10G22   29.91F
MOSINEE        CLOUDY    46  39  76 E13       29.93F
MARSHFIELD     CLOUDY    45  38  76 SE13      29.88F
STEVENS POINT  CLOUDY    46  39  77 E13       29.94F
WAUPACA        CLOUDY    55  44  67 E15       29.96F
WAUTOMA        CLOUDY    57  50  77 SE16      29.94F
WISC RAPIDS    PTSUNNY   56  48  74 SE14G21   29.91F
CAMP DOUGLAS   NOT AVBL
$$

WIZ011>013-019>022-031-037>040-048>050-202000-
NORTHEAST WISCONSIN

CITY           SKY/WX    TMP DP  RH WIND       PRES   REMARKS
ANTIGO         CLOUDY    42  35  74 SE17      29.97F
SHAWANO        CLOUDY    52  41  65 SE8       30.02F
OCONTO         CLOUDY    49  34  55 SE9       30.06F
STURGEON BAY   CLOUDY    47  34  60 SE14G21   30.07F
GREEN BAY      CLOUDY    51  44  77 SE13      30.04F
MANITOWOC      NOT AVBL
APPLETON       PTSUNNY   50  39  66 SE13G20   29.99F
CLINTONVILLE   CLOUDY    50  37  62 SE9G18    30.00F
OSHKOSH        CLOUDY    53  44  71 SE16      29.98F
$$

WIZ032>034-041-042-053>061-202000-
SOUTHWEST WISCONSIN

CITY           SKY/WX    TMP DP  RH WIND       PRES   REMARKS
LA CROSSE      CLOUDY    56  50  80 SE10      29.82F
SPARTA         CLOUDY    57  51  81 SE7       29.86F
VIROQUA        CLOUDY    53  50  92 SE17G23   29.85F
BOSCOBEL       CLOUDY    57  49  74 VRB3      29.89F HAZE
PRAIRIE DU CHI CLOUDY    54  48  80 E10       29.85F HAZE
PLATTEVILLE    CLOUDY    57  53  85 SE14      29.91F
$$

WIZ056-057-062-063-064-067-068-202000-
SOUTH CENTRAL WISCONSIN

CITY           SKY/WX    TMP DP  RH WIND       PRES   REMARKS
REEDSBURG      CLOUDY    57  51  80 S8        29.92F
BARABOO/DELLS  CLOUDY    56  48  75 S14       29.92F
LONE ROCK      NOT AVBL
MINERAL POINT  CLOUDY    59  52  77 SE16      29.91F
MADISON        CLOUDY    59  49  69 SE17      29.95F
MIDDLETON      CLOUDY    62  50  66 SE13G18   29.94F
WATERTOWN      MOSUNNY   58  50  73 SE9       29.98F
MONROE         MOSUNNY   61  50  67 SE16G23   29.94F
JANESVILLE     PTSUNNY   64  50  59 SE14G22   29.97F
$$

WIZ051-052-058>065-066-070>072-202000-
SOUTHEAST WISCONSIN

CITY           SKY/WX    TMP DP  RH WIND       PRES   REMARKS
MILWAUKEE      CLOUDY    51  43  74 SE10      30.05F HAZE
WAUKESHA       MOSUNNY   55  46  71 SE10      30.03F FOG
MILWAUKEE/TIMM CLOUDY    52  39  62 E7        30.05F
RACINE         CLOUDY    50  42  74 SE12      30.06F HAZE
KENOSHA        CLOUDY    54  45  71 SE14      30.04F HAZE
FOND DU LAC    CLOUDY    55  44  66 SE15G22   29.99F
SHEBOYGAN      CLOUDY    47  39  74 SE10      30.05F
WEST BEND      CLOUDY    50  43  76 SE12      30.03
JUNEAU         CLOUDY    58  49  72 SE14      30.00F
$$

LSZ147-162-202000-
LAKE SUPERIOR

STATION/POSITION TIME  TEMP    WIND        PRES    WAVE
                       AIR SEA DIR/SP/G            HT/PER
                 (UTC) (F)     (DEG/KT/KT) (MB)    (FT/S)
DEVILS ISLAND    1800   46      70/  6/  7 1011.6F
PORT WING        1830   37      40/ 11/ 13 1008.8F
SAXON HARBOR     1830   54     170/  8/ 16 1009.1F
$$

LMZ867-665-643>646-202000-
LAKE MICHIGAN

STATION/POSITION TIME  TEMP    WIND        PRES    WAVE
                       AIR SEA DIR/SP/G            HT/PER
                 (UTC) (F)     (DEG/KT/KT) (MB)    (FT/S)
CHAMBERS ISLAND  1840   46     110/  5/  8 1019.0F
NORTHPORT PIER   1840   37      CALM  /  4 1020.0F
SISTER BAY       1835   45     140/  8/ 11   N/A
KEWAUNEE LAKESHO 1830   38     170/  7/  8 1018.7F
SHEBOYGAN LAKESH 1800   40     150/  9/ 11 1019.7F
PORT WASHINGTON  1840   42      40/  2/  6 1019.0F
MILWAUKEE LAKESH 1830   40     170/  2/  3   N/A
KENOSHA   LAKESH 1800   39     150/  9/ 11 1018.3
$$

TC  - TEMPERATURE IN CELSIUS
VSB - VISIBILITY IN STATUTE MILES
WCI - WIND CHILL INDEX
HX  - HEAT INDEX





USA.gov is the U.S. government's official web portal to all federal, state and local government web resources and services.